COSMOS 1275 DEB

基本信息
目录编号:
12775
目录名称:
COSMOS 1275 DEB
国际标识:
1981-053DU
轨道中心:
EARTH
物体状态:
在轨
发射日期:
1981-06-04 UTC
轨道信息
数据来源: 国际轨道数据
星历时间: 2026-09-04T16:16:56+0800
半长轴: 7402.757km
偏心率: 0.0147814
轨道倾角: 83.333°
近地点辐角: 172.341°
升交点赤经: 206.470°
平近点角: 340.516°
近地点: 915.196km
远地点: 1134.044km
周期: 105.645分钟
每日圈数: 13.630524
详细信息
发射场:
PKMTR
轨道高度:
LEO
数据来源:
AOE Integration Group
参考系:
TEME
时间系统:
UTC
历元类型:
SGP4
2D轨道图
3D轨道图
轨道高度分析图
轨道倾角分析图
轨道综合分析图
查看轨道综合分析图